Location: Newark
(3.0500°N, 36.0167°E)
Time: 18:41:24
(UTC+00:00)

A-11 Canister half - Pass Details

Date: 28 August 2019
Orbit: 1527 x 1682 km, 47.3° (Epoch: 17 October)

Event Time Altitude Azimuth Distance (km) Brightness Sun altitude
Rises 14:59:14 0° 338° (NNW) 4,918 12.1 9.9°
Reaches altitude 10° 15:02:56 10° 348° (NNW) 3,924 11.5 9.0°
Maximum altitude 15:11:34 32° 47° (NE) 2,559 10.0 6.8°
Drops below altitude 10° 15:19:59 10° 106° (ESE) 3,849 10.5 4.8°
Sets 15:23:31 0° 116° (ESE) 4,813 11.0 3.9°
